COSMOS 1275 DEB, 12741

Orbit data source: Space-Track

COSMOS 1275 DEB, 12741 is space debris in LEO originally from a launch on Thu, 04 Jun 1981 UTC launched from the Plesetsk Missile And Space Complex (PKMTR). Debris objects in space refer to the collection of defunct objects orbiting the Earth. Examples of debris include non-operational satellites, rocket bodies, and fragments generated from explosions, collisions, or faulty payload assembly.

Loading next visibility...
Identifier
12741, 1981-053CJ
Orbit
LEO
Country
Flag of CISCIS
Related business
Manufacturer
Unknown
Mission
Spacecraft
Bus & Motor
Unknown
Mass
Unknown
Launch date (UTC)
1981-06-04 (45 years ago)
Launch vehicle
Unknown
Launch site
Plesetsk Missile And Space Complex (PKMTR)
Object type
Payload
Rocket body
Debris
Shape & HBR
Unknown shape, 0.1 m
Radar Cross Section
Small (<0.1 m²)

Expand to show TLE details & history
Last TLE update: 12 hours ago

TLE from 12 hours ago
0 COSMOS 1275 DEB
1 12741U 81053CJ  26104.47525368  .00000337  00000-0  25502-3 0  9995
2 12741  82.9504 179.3310 0062525 250.0788 129.1705 13.90474593252008
Epoch: 2026-04-14T11:24Z
TLE epoch observation values (Epoch: 2026-04-14T11:24:21.917Z)
Latitude
19.64673°
Longitude
168.10586°
Altitude
958.478 km
Speed
7.359 km/s
True Right ascension
12h 07m 23s
True Declination
19° 32' 28"
Sunlit
Object was in full shadow at epoch
Visualization orbit readout
Latitude
Unknown
Longitude
Unknown
Altitude
Unknown
Speed
Unknown
Apparent Right ascension
Unknown
Apparent Declination
Unknown
Sunlit
N/A
Visualization observer readout
Local Sidereal Time
05:58:20
Azimuth
Unknown
Elevation
Unknown
Doppler factor
Unknown
Orbital elements
Apogee altitude
969.752 km
Perigee altitude
878.438 km
Semi-major axis
7,302.232 km
Eccentricity
0.00625
Inclination
82.9504°
RAAN
179.331°
Arg. of periapsis
250.0788°
True anomaly
129.72323°
Mean anomaly
129.1705°
Eccentric anomaly
129.44714°
Mean motion
3.47824 °/min
Orbital period
103.5 mins
BSTAR
0.00025502
Loading maneuver chart data...
Computing Atmospheric mass density...
Loading historical data...
Loading historical data...
Loading historical data...
Loading historical data...
Loading historical data...
Loading historical data...
Loading historical data...

Documentation

Showing up to 5 results
|